VE3KSR Weather Reports


Display with metric or nautical units.
time (UTC)temp
F
wind
direction
speed
MPH
gust
MPH
rain 1hr
in
rain 24hr
in
rain mn
in
humidity
%
barometer
mb
20141024234635 52 329 7.0 10.0 0.13 0.00 0.00 79 1013.3
20141024234135 52 330 8.0 10.0 0.13 0.00 0.00 79 1013.3
20141024233634 52 330 9.0 11.0 0.13 0.00 0.00 78 1013.2
20141024233135 52 326 9.0 11.0 0.13 0.00 0.00 78 1013.1
20141024232633 52 330 9.0 12.0 0.13 0.00 0.00 77 1013.2
20141024232133 52 326 9.0 11.0 0.13 0.00 0.00 77 1013.0
20141024231634 52 323 9.0 12.0 0.13 0.00 0.00 76 1012.8
20141024231136 52 329 8.0 10.0 0.13 0.00 0.00 75 1012.7
20141024230634 53 328 9.0 10.0 0.13 0.00 0.00 75 1012.7
20141024230135 53 336 8.0 10.0 0.13 0.00 0.00 75 1012.7
20141024225638 53 319 9.0 10.0 0.13 0.00 0.00 74 1012.4
20141024225134 53 335 9.0 12.0 0.13 0.00 0.00 74 1012.5
20141024224633 53 328 9.0 11.0 0.13 0.00 0.00 73 1012.8
20141024224135 53 332 9.0 11.0 0.13 0.00 0.00 72 1012.9
20141024223633 53 322 8.0 11.0 0.13 0.00 0.00 72 1012.9
20141024223135 53 335 8.0 10.0 0.13 0.00 0.00 71 1012.8
20141024222720 54 318 8.0 10.0 0.13 0.00 0.00 71 1012.8
20141024222633 54 318 8.0 10.0 0.13 0.00 0.00 71 1012.8
20141024222133 54 321 8.0 10.0 0.13 0.00 0.00 70 1012.7
20141024221634 54 321 8.0 9.0 0.13 0.00 0.00 70 1012.6
20141024221134 54 318 10.0 12.0 0.13 0.00 0.00 69 1012.6
20141024220921 55 325 11.0 15.0 0.13 0.00 0.00 68 1012.2
20141024220634 54 329 11.0 14.0 0.13 0.00 0.00 69 1012.6
20141024220137 54 323 11.0 15.0 0.13 0.00 0.00 69 1012.6
20141024215634 54 325 12.0 15.0 0.13 0.00 0.00 68 1012.5
20141024215134 55 325 11.0 15.0 0.13 0.00 0.00 68 1012.2
20141024214634 55 330 10.0 13.0 0.13 0.00 0.00 68 1012.3
20141024214135 55 308 12.0 16.0 0.13 0.00 0.00 68 1012.4
20141024213633 55 288 14.0 18.0 0.13 0.00 0.00 67 1012.3
20141024213134 55 295 13.0 17.0 0.13 0.00 0.00 66 1012.4
20141024212635 56 288 13.0 17.0 0.13 0.00 0.00 66 1012.5
20141024212134 56 291 12.0 15.0 0.13 0.00 0.00 65 1012.6
20141024211634 56 297 13.0 16.0 0.13 0.00 0.00 65 1012.5
20141024211134 56 287 14.0 17.0 0.13 0.00 0.00 64 1012.4
20141024210633 56 295 13.0 17.0 0.13 0.00 0.00 64 1012.3
20141024210134 56 301 16.0 18.0 0.13 0.00 0.00 64 1012.2
20141024205634 56 294 15.0 19.0 0.13 0.00 0.00 64 1012.0
20141024205134 56 300 12.0 18.0 0.13 0.00 0.00 65 1011.9
20141024204634 56 284 16.0 21.0 0.13 0.00 0.00 64 1012.0
20141024204138 56 295 17.0 21.0 0.13 0.00 0.00 65 1011.9
20141024203634 56 305 14.0 19.0 0.13 0.00 0.00 65 1011.9
20141024203136 56 291 12.0 17.0 0.13 0.00 0.00 65 1012.0
20141024202634 56 284 13.0 17.0 0.13 0.00 0.00 63 1012.0
20141024202137 56 290 11.0 16.0 0.13 0.00 0.00 65 1012.2
20141024201634 56 297 13.0 18.0 0.13 0.00 0.00 64 1012.3
20141024201134 56 293 13.0 17.0 0.13 0.00 0.00 65 1012.4
20141024200634 56 304 12.0 16.0 0.13 0.00 0.00 65 1012.5
20141024195135 56 326 11.0 14.0 0.13 0.00 0.00 66 1012.2
20141024194634 56 301 14.0 18.0 0.13 0.00 0.00 65 1012.2
20141024194134 55 294 15.0 19.0 0.13 0.00 0.00 65 1011.9
20141024193634 55 277 12.0 18.0 0.13 0.00 0.00 67 1012.0
20141024193133 55 293 14.0 17.0 0.13 0.00 0.00 68 1012.2
20141024192634 55 284 13.0 18.0 0.13 0.00 0.00 69 1011.9
20141024192134 55 295 13.0 16.0 0.13 0.00 0.00 71 1012.3
20141024191634 55 311 10.0 13.0 0.13 0.00 0.00 73 1012.4
20141024191135 55 291 12.0 15.0 0.13 0.00 0.00 74 1012.7
20141024190638 54 316 11.0 14.0 0.13 0.00 0.00 76 1012.8
20141024190138 54 295 14.0 16.0 0.13 0.00 0.00 76 1012.7
20141024185634 54 291 10.0 14.0 0.13 0.00 0.00 79 1012.7
20141024185134 53 304 12.0 15.0 0.13 0.00 0.00 80 1012.6
20141024184634 53 304 13.0 16.0 0.13 0.00 0.00 80 1012.7
20141024184134 53 277 14.0 17.0 0.13 0.00 0.00 80 1012.7
20141024183636 53 297 11.0 14.0 0.13 0.00 0.00 80 1012.7
20141024183136 53 301 12.0 15.0 0.13 0.00 0.00 81 1012.6
20141024182635 53 311 13.0 16.0 0.13 0.00 0.00 81 1012.7
20141024182134 52 309 14.0 16.0 0.13 0.00 0.00 82 1012.9
20141024181640 52 291 13.0 19.0 0.13 0.00 0.00 84 1013.0
20141024181139 52 288 12.0 16.0 0.13 0.00 0.00 85 1013.2
20141024180634 51 297 12.0 15.0 0.13 0.00 0.00 87 1013.3
20141024180135 51 284 12.0 16.0 0.13 0.00 0.00 87 1013.2
20141024175635 51 294 11.0 16.0 0.13 0.00 0.00 90 1013.3
20141024175135 50 307 12.0 15.0 0.13 0.00 0.00 90 1013.2
20141024174634 50 301 11.0 13.0 0.13 0.00 0.00 92 1013.1
20141024174136 50 293 10.0 14.0 0.13 0.00 0.00 91 1013.2
20141024173636 49 291 13.0 16.0 0.13 0.00 0.00 91 1013.2
20141024173136 49 280 14.0 17.0 0.13 0.00 0.00 92 1013.2
20141024172635 49 323 11.0 15.0 0.13 0.00 0.00 93 1013.3
20141024172135 49 298 10.0 15.0 0.13 0.00 0.00 93 1013.5
20141024171635 48 285 11.0 16.0 0.13 0.00 0.00 94 1013.6
20141024171138 48 312 11.0 13.0 0.13 0.00 0.00 96 1013.9
20141024170634 47 326 11.0 13.0 0.13 0.00 0.00 97 1014.0
20141024170135 47 285 13.0 17.0 0.13 0.00 0.00 97 1013.8
20141024165635 46 298 13.0 16.0 0.13 0.00 0.00 97 1013.8
20141024165135 46 295 12.0 16.0 0.13 0.00 0.00 98 1013.6
20141024164635 46 304 12.0 15.0 0.13 0.00 0.00 98 1013.8
20141024164134 46 293 11.0 14.0 0.13 0.00 0.00 99 1014.1
20141024163637 46 287 10.0 11.0 0.13 0.00 0.00 99 1014.1
20141024163134 45 288 10.0 13.0 0.13 0.00 0.00 99 1014.2
20141024162635 45 304 9.0 12.0 0.13 0.00 0.00 99 1014.4
20141024162136 44 290 10.0 14.0 0.13 0.00 0.00 99 1014.5
20141024161811 43 294 8.0 11.0 0.13 0.00 0.00 99 1014.5
20141024161634 44 283 8.0 10.0 0.13 0.00 0.00 99 1014.4
20141024161135 44 300 9.0 12.0 0.13 0.00 0.00 99 1014.5
20141024160634 44 302 8.0 10.0 0.13 0.00 0.00 99 1014.5
20141024160136 43 294 8.0 11.0 0.13 0.00 0.00 99 1014.5
20141024155635 43 302 8.0 10.0 0.13 0.00 0.00 99 1014.5
20141024155134 43 297 8.0 10.0 0.13 0.00 0.00 99 1014.6
20141024154642 43 319 7.0 8.0 0.13 0.00 0.00 99 1014.8
20141024154134 42 335 6.0 8.0 0.13 0.00 0.00 99 1015.1
20141024153635 42 347 6.0 8.0 0.13 0.00 0.00 99 1015.2
20141024153134 42 318 8.0 9.0 0.13 0.00 0.00 99 1015.2
20141024152635 42 318 6.0 9.0 0.13 0.00 0.00 99 1015.1
20141024152135 42 329 6.0 7.0 0.13 0.00 0.00 99 1015.0
20141024151634 41 323 7.0 10.0 0.13 0.00 0.00 99 1014.8
20141024151136 41 304 5.0 7.0 0.13 0.00 0.00 99 1015.0
20141024150637 41 329 6.0 8.0 0.13 0.00 0.00 99 1014.8
20141024150135 41 309 7.0 9.0 0.13 0.00 0.00 99 1014.6
20141024145854 41 308 7.0 8.0 0.13 0.00 0.00 99 1014.7
20141024145634 41 308 7.0 8.0 0.13 0.00 0.00 99 1014.7
20141024145136 41 328 7.0 9.0 0.13 0.00 0.00 99 1014.8
20141024144638 41 302 9.0 11.0 0.13 0.00 0.00 99 1014.8
20141024144135 40 309 8.0 10.0 0.13 0.00 0.00 99 1015.1
20141024143635 40 322 8.0 10.0 0.13 0.00 0.00 99 1015.1
20141024143135 40 342 7.0 9.0 0.13 0.00 0.00 99 1015.1
20141024142634 40 312 8.0 9.0 0.13 0.00 0.00 99 1015.1
20141024142136 40 329 7.0 9.0 0.13 0.00 0.00 99 1015.1
20141024141635 40 342 7.0 10.0 0.13 0.00 0.00 99 1015.0
20141024141134 39 322 10.0 14.0 0.13 0.00 0.00 99 1014.7
20141024140636 39 340 11.0 13.0 0.13 0.00 0.00 99 1014.8
20141024140135 39 349 8.0 10.0 0.13 0.00 0.00 99 1014.8
20141024135635 38 333 10.0 13.0 0.13 0.00 0.00 99 1014.7
20141024135136 38 338 9.0 11.0 0.13 0.00 0.00 99 1014.8
20141024134637 38 326 9.0 12.0 0.13 0.00 0.00 98 1015.1
20141024134137 38 330 8.0 10.0 0.13 0.00 0.00 99 1015.0
20141024133635 37 322 7.0 9.0 0.13 0.00 0.00 99 1015.2
20141024133136 37 316 8.0 9.0 0.13 0.00 0.00 99 1015.2
20141024132638 37 318 10.0 11.0 0.13 0.00 0.00 99 1015.2
20141024132136 37 329 10.0 13.0 0.13 0.00 0.00 99 1015.2
20141024131635 37 329 11.0 14.0 0.13 0.00 0.00 99 1015.1
20141024131137 37 321 11.0 13.0 0.13 0.00 0.00 99 1014.8
20141024130641 37 325 13.0 17.0 0.13 0.00 0.00 99 1014.7
20141024130135 37 322 14.0 18.0 0.13 0.00 0.00 89 1014.7
20141024125635 38 316 13.0 17.0 0.13 0.00 0.00 99 1014.6
20141024125136 37 333 11.0 14.0 0.13 0.00 0.00 99 1014.8
20141024124641 37 328 13.0 15.0 0.13 0.00 0.00 99 1014.8
20141024124637 37 328 13.0 15.0 0.13 0.00 0.00 99 1014.8
20141024124134 37 322 12.0 15.0 0.13 0.00 0.00 99 1015.0
20141024123634 37 330 11.0 13.0 0.13 0.00 0.00 99 1015.1
20141024123134 37 332 11.0 13.0 0.13 0.00 0.00 99 1015.2
20141024122639 37 326 12.0 16.0 0.13 0.00 0.00 99 1015.1
20141024122138 37 319 13.0 16.0 0.13 0.00 0.00 99 1014.8
20141024121635 37 326 13.0 16.0 0.13 0.00 0.00 99 1014.8
20141024121135 37 328 13.0 16.0 0.13 0.00 0.00 99 1014.5
20141024120635 36 345 11.0 13.0 0.13 0.00 0.00 99 1014.4
20141024120135 36 350 11.0 14.0 0.13 0.00 0.00 99 1014.4
20141024115636 35 338 10.0 12.0 0.13 0.00 0.00 99 1014.5
20141024115229 35 350 10.0 11.0 0.13 0.00 0.00 99 1014.5
20141024115135 35 350 10.0 11.0 0.13 0.00 0.00 99 1014.5
20141024114757 35 338 10.0 11.0 0.13 0.00 0.00 99 1014.8
20141024114638 35 338 10.0 11.0 0.13 0.00 0.00 99 1014.8
20141024114135 35 338 9.0 11.0 0.13 0.00 0.00 99 1015.0
20141024113636 35 0 10.0 12.0 0.13 0.00 0.00 99 1015.0
20141024113136 35 350 10.0 13.0 0.13 0.00 0.00 99 1015.2
20141024112636 35 342 10.0 13.0 0.13 0.00 0.00 99 1015.1
20141024112137 35 329 10.0 13.0 0.13 0.00 0.00 99 1015.3
20141024111636 35 339 10.0 13.0 0.13 0.00 0.00 99 1015.3
20141024111136 35 338 9.0 11.0 0.13 0.00 0.00 99 1015.3
20141024110635 35 352 10.0 11.0 0.13 0.00 0.00 99 1015.2
20141024110135 35 352 10.0 12.0 0.13 0.00 0.00 98 1015.1
20141024105635 36 356 11.0 13.0 0.13 0.00 0.00 98 1015.0
20141024105231 36 352 10.0 12.0 0.13 0.00 0.00 98 1015.0
20141024105136 36 352 10.0 12.0 0.13 0.00 0.00 98 1015.0
20141024104634 37 0 11.0 12.0 0.13 0.00 0.00 98 1015.0
20141024104135 37 354 11.0 12.0 0.13 0.00 0.00 98 1015.0
20141024103731 38 6 11.0 12.0 0.13 0.00 0.00 98 1015.0
20141024103638 38 6 11.0 12.0 0.13 0.00 0.00 98 1015.0
20141024103135 38 6 10.0 12.0 0.13 0.00 0.00 98 1015.0
20141024102735 38 24 11.0 14.0 0.13 0.00 0.00 98 1015.1
20141024102638 38 24 11.0 14.0 0.13 0.00 0.00 98 1015.1
20141024102136 38 353 12.0 14.0 0.13 0.00 0.00 98 1015.0
20141024101637 38 353 13.0 16.0 0.13 0.00 0.00 98 1015.0
20141024101135 38 3 14.0 16.0 0.13 0.00 0.00 98 1015.1
20141024100636 38 4 13.0 15.0 0.13 0.00 0.00 98 1015.1
20141024100135 38 353 13.0 15.0 0.13 0.00 0.00 98 1015.2
20141024095635 38 346 13.0 17.0 0.13 0.00 0.00 98 1014.8
20141024095136 38 352 12.0 15.0 0.13 0.00 0.00 98 1014.7
20141024094636 38 349 13.0 16.0 0.13 0.00 0.00 98 1014.7
20141024094135 38 347 13.0 17.0 0.13 0.00 0.00 98 1014.6
20141024093636 38 14 14.0 18.0 0.13 0.00 0.00 98 1014.6
20141024093136 38 340 15.0 16.0 0.13 0.00 0.00 98 1014.8
20141024092636 38 350 15.0 19.0 0.13 0.00 0.00 98 1015.0
20141024092139 38 352 15.0 18.0 0.13 0.00 0.00 98 1015.2
20141024091637 38 347 16.0 18.0 0.13 0.00 0.00 99 1015.2
20141024091140 38 346 15.0 18.0 0.13 0.00 0.00 99 1015.5
20141024090635 37 343 14.0 16.0 0.13 0.00 0.00 98 1015.6
20141024090135 37 336 12.0 14.0 0.13 0.00 0.00 98 1015.7
20141024085635 37 335 12.0 13.0 0.13 0.00 0.00 98 1015.7
20141024085137 37 335 12.0 13.0 0.13 0.00 0.00 98 1015.6
20141024084637 37 350 11.0 13.0 0.13 0.00 0.00 97 1015.4
20141024084135 38 347 12.0 14.0 0.13 0.00 0.00 97 1015.2
20141024083635 39 343 13.0 15.0 0.13 0.00 0.00 97 1015.2
20141024083138 39 343 13.0 16.0 0.13 0.00 0.00 98 1015.2
20141024082636 39 345 14.0 15.0 0.13 0.00 0.00 98 1015.3
20141024082135 39 352 13.0 15.0 0.13 0.00 0.00 98 1015.3
20141024081722 39 343 13.0 15.0 0.13 0.00 0.00 98 1015.3
20141024081635 39 343 13.0 15.0 0.13 0.00 0.00 98 1015.3
20141024081136 39 0 13.0 14.0 0.13 0.00 0.00 99 1015.2
20141024080635 39 0 14.0 15.0 0.13 0.00 0.00 99 1015.4
20141024080136 39 352 14.0 15.0 0.13 0.00 0.00 99 1015.5
20141024075635 38 3 13.0 14.0 0.13 0.00 0.00 99 1015.6
20141024075135 38 357 13.0 13.0 0.13 0.00 0.00 99 1015.5
20141024074635 38 356 11.0 13.0 0.13 0.00 0.00 99 1015.4
20141024074139 37 0 12.0 13.0 0.13 0.00 0.00 99 1015.4
20141024073635 37 1 12.0 13.0 0.13 0.00 0.00 99 1015.3
20141024073139 37 6 11.0 13.0 0.13 0.00 0.00 99 1015.4
20141024072636 37 359 12.0 13.0 0.13 0.00 0.00 99 1015.5
20141024072231 36 352 10.0 12.0 0.13 0.00 0.00 99 1015.6
20141024072136 36 352 10.0 12.0 0.13 0.00 0.00 99 1015.6
20141024071636 37 335 11.0 13.0 0.13 0.00 0.00 99 1015.6
20141024071139 37 340 11.0 13.0 0.13 0.00 0.00 99 1015.6
20141024070636 38 354 13.0 15.0 0.13 0.00 0.00 99 1015.7
20141024070135 38 347 13.0 15.0 0.13 0.00 0.00 99 1015.7
20141024070012 38 353 12.0 14.0 0.13 0.00 0.00 99 1015.7
20141024065636 38 353 12.0 14.0 0.13 0.00 0.00 99 1015.7
20141024065136 37 356 12.0 13.0 0.13 0.00 0.00 99 1015.7
20141024064755 37 10 12.0 14.0 0.13 0.00 0.00 99 1015.6
20141024064706 37 6 12.0 13.0 0.13 0.00 0.00 99 1015.6
20141024064635 37 10 12.0 14.0 0.13 0.00 0.00 99 1015.6
20141024064140 37 6 12.0 13.0 0.13 0.00 0.00 99 1015.6
20141024063635 37 350 13.0 15.0 0.13 0.00 0.00 99 1015.6
20141024063139 37 345 14.0 16.0 0.13 0.00 0.00 99 1015.6
20141024062635 37 346 14.0 15.0 0.13 0.00 0.00 99 1015.7
20141024062139 37 356 13.0 14.0 0.13 0.00 0.00 99 1016.0
20141024061637 37 353 12.0 13.0 0.13 0.00 0.00 99 1015.9
20141024061138 37 349 11.0 13.0 0.13 0.00 0.00 99 1016.2
20141024060635 37 352 12.0 14.0 0.13 0.00 0.00 99 1016.1
20141024060135 37 340 11.0 13.0 0.13 0.00 0.00 98 1016.2
20141024055635 37 350 10.0 13.0 0.13 0.00 0.00 98 1016.1
20141024055135 37 349 11.0 13.0 0.13 0.00 0.00 98 1016.1
20141024054636 37 1 11.0 12.0 0.13 0.00 0.00 98 1015.9
20141024054135 37 356 11.0 13.0 0.13 0.00 0.00 98 1015.8
20141024053636 37 354 12.0 14.0 0.13 0.00 0.00 98 1015.9
20141024053136 37 10 10.0 13.0 0.13 0.00 0.00 97 1015.9
20141024052635 38 4 11.0 13.0 0.13 0.00 0.00 97 1016.0
20141024052135 39 3 11.0 11.0 0.13 0.00 0.00 98 1016.2
20141024051636 39 15 10.0 11.0 0.13 0.00 0.00 98 1016.4
20141024051136 39 6 11.0 12.0 0.13 0.00 0.00 98 1016.6
20141024050639 38 1 10.0 12.0 0.13 0.00 0.00 98 1016.4
20141024050135 39 11 10.0 12.0 0.13 0.00 0.00 98 1016.3
20141024045731 38 25 11.0 13.0 0.13 0.00 0.00 98 1016.2
20141024045638 38 25 11.0 13.0 0.13 0.00 0.00 98 1016.2
20141024045520 38 24 11.0 12.0 0.13 0.00 0.00 98 1016.0
20141024045235 38 24 11.0 12.0 0.13 0.00 0.00 98 1016.0
20141024045137 38 24 11.0 12.0 0.13 0.00 0.00 98 1016.0
20141024044828 38 356 12.0 13.0 0.13 0.00 0.00 98 1016.1
20141024044638 38 356 12.0 13.0 0.13 0.00 0.00 98 1016.1
20141024044137 38 352 11.0 13.0 0.13 0.00 0.00 97 1016.0
20141024043635 38 3 13.0 14.0 0.13 0.00 0.00 98 1016.0
20141024043138 38 356 11.0 13.0 0.13 0.00 0.00 97 1016.1
20141024042712 38 353 10.0 12.0 0.13 0.00 0.00 97 1016.3
20141024042636 38 353 10.0 12.0 0.13 0.00 0.00 97 1016.3
20141024042136 38 350 10.0 13.0 0.13 0.00 0.00 97 1016.6
20141024041639 39 338 10.0 12.0 0.13 0.00 0.00 97 1016.5
20141024041137 39 359 10.0 12.0 0.13 0.00 0.00 97 1016.6
20141024040638 39 333 10.0 12.0 0.13 0.00 0.00 97 1016.5
20141024040136 39 346 9.0 12.0 0.13 0.00 0.00 96 1016.7
20141024035637 39 330 10.0 13.0 0.13 0.00 0.00 97 1016.6
20141024035528 39 340 10.0 12.0 0.13 0.00 0.00 97 1016.5
20141024035137 39 340 10.0 12.0 0.13 0.00 0.00 97 1016.5
20141024034637 39 338 10.0 12.0 0.13 0.00 0.00 96 1016.5
20141024034136 40 350 10.0 12.0 0.13 0.00 0.00 96 1016.4
20141024034024 40 350 10.0 12.0 0.13 0.00 0.00 96 1016.3
20141024033638 40 350 10.0 12.0 0.13 0.00 0.00 96 1016.3
20141024033135 40 1 10.0 12.0 0.13 0.00 0.00 95 1016.5
20141024032636 40 353 11.0 12.0 0.13 0.00 0.00 95 1016.4
20141024032136 41 347 11.0 12.0 0.13 0.00 0.00 95 1016.6
20141024031635 41 356 10.0 12.0 0.13 0.00 0.00 95 1016.8
20141024031136 41 359 11.0 12.0 0.13 0.00 0.00 94 1017.0
20141024030800 41 359 10.0 11.0 0.13 0.00 0.00 94 1017.0
20141024030638 41 359 10.0 11.0 0.13 0.00 0.00 94 1017.0
20141024030137 42 8 10.0 10.0 0.13 0.00 0.00 94 1017.1
20141024025640 42 3 10.0 11.0 0.13 0.00 0.00 93 1017.1
20141024025136 42 4 10.0 13.0 0.13 0.00 0.00 93 1016.9
20141024024636 43 14 11.0 12.0 0.13 0.00 0.00 93 1016.8
20141024024138 43 24 11.0 13.0 0.13 0.00 0.00 93 1016.9
20141024023636 42 20 11.0 14.0 0.13 0.00 0.00 94 1016.9
20141024023136 42 18 10.0 13.0 0.13 0.00 0.00 94 1017.0
20141024022637 42 8 11.0 12.0 0.13 0.00 0.00 94 1016.9
20141024022443 43 24 10.0 12.0 0.13 0.00 0.00 94 1017.0
20141024022138 43 24 10.0 12.0 0.13 0.00 0.00 94 1017.0
20141024021740 43 21 10.0 12.0 0.13 0.00 0.00 94 1017.3
20141024021636 43 21 10.0 12.0 0.13 0.00 0.00 94 1017.3
20141024021136 43 21 11.0 13.0 0.13 0.00 0.00 94 1017.2
20141024020636 43 17 12.0 14.0 0.13 0.00 0.00 94 1017.4
20141024020139 43 7 10.0 12.0 0.13 0.00 0.00 94 1017.6
20141024015636 44 27 11.0 13.0 0.13 0.00 0.00 94 1017.6
20141024015137 44 42 12.0 14.0 0.13 0.00 0.00 94 1017.7
20141024014636 44 8 13.0 15.0 0.13 0.00 0.00 95 1017.5
20141024014136 43 3 12.0 13.0 0.13 0.00 0.00 95 1017.7
20141024014027 43 353 11.0 13.0 0.13 0.00 0.00 94 1017.7
20141024013642 43 353 11.0 13.0 0.13 0.00 0.00 94 1017.7
20141024013431 44 357 11.0 13.0 0.13 0.00 0.00 94 1017.5
20141024013136 43 7 12.0 14.0 0.13 0.00 0.00 94 1017.6
20141024012637 44 356 12.0 14.0 0.13 0.00 0.00 94 1017.6
20141024012137 44 357 11.0 13.0 0.13 0.00 0.00 94 1017.5
20141024011637 44 340 9.0 11.0 0.13 0.00 0.00 94 1017.5
20141024011136 44 347 10.0 12.0 0.13 0.00 0.00 93 1017.4
20141024010811 45 343 10.0 12.0 0.13 0.00 0.00 93 1017.4
20141024010636 45 343 10.0 12.0 0.13 0.00 0.00 93 1017.4
20141024010136 45 353 9.0 11.0 0.13 0.00 0.00 93 1017.3
20141024005636 45 4 10.0 11.0 0.13 0.00 0.00 92 1017.6
20141024005139 46 357 11.0 12.0 0.13 0.00 0.00 92 1017.6
20141024004636 46 3 11.0 12.0 0.13 0.00 0.00 92 1017.7
20141024004137 46 356 10.0 11.0 0.13 0.00 0.00 92 1018.0
20141024003636 46 349 11.0 12.0 0.13 0.00 0.00 92 1018.0
20141024003136 46 1 11.0 12.0 0.13 0.00 0.00 92 1018.0
20141024002722 47 3 10.0 12.0 0.13 0.00 0.00 90 1017.9
20141024002637 46 1 10.0 12.0 0.13 0.00 0.00 91 1018.0
20141024002136 47 0 11.0 13.0 0.13 0.00 0.00 91 1017.7
20141024001636 47 359 11.0 12.0 0.13 0.00 0.00 91 1017.9
20141024001136 47 3 10.0 12.0 0.13 0.00 0.00 90 1017.9
20141024000636 47 0 9.0 11.0 0.13 0.00 0.00 90 1017.6
20141024000136 48 14 11.0 13.0 0.13 0.00 0.00 90 1017.6
20141023235638 48 359 12.0 14.0 0.13 0.00 0.00 89 1017.5
20141023235136 48 0 10.0 13.0 0.13 0.00 0.00 88 1017.5